Location: Gorze? G�rny
(49.8500°N, 19.5000°E)
Time: 11:18:32
(UTC+00:00)

Cosmos 2184 Rocket - Visible Passes

Search period start: 27 September 2021 00:00
Search period end: 07 October 2021 00:00
Orbit: 958 x 1002 km, 82.9° (Epoch: 26 September)

Date Brightness Start Highest point End Pass type
(mag) Time Alt. Az. Time Alt. Az. Time Alt. Az.
27 Sep 6.6 02:39:09 10° NNE 02:43:40 21° ENE 02:48:09 10° ESE visible
27 Sep 5.0 17:59:16 10° SSW 18:05:24 51° WNW 18:11:30 10° N visible
27 Sep 7.2 19:51:08 10° WNW 19:52:33 11° NW 19:53:58 10° NW visible
28 Sep 5.8 03:05:31 10° N 03:11:05 33° ENE 03:16:35 10° SE visible
28 Sep 5.9 18:27:08 10° SW 18:32:38 31° WNW 18:38:08 10° N visible
29 Sep 7.1 01:49:13 10° NNE 01:51:14 12° NE 01:53:14 10° ENE visible
29 Sep 4.8 03:32:12 10° N 03:38:17 56° ENE 03:44:19 10° SSE visible
29 Sep 4.1 17:07:20 10° S 17:13:40 90° WNW 17:19:57 10° N visible
29 Sep 6.6 18:55:44 10° WSW 19:00:05 19° WNW 19:04:26 10° NNW visible
30 Sep 6.6 02:14:34 10° NNE 02:18:54 19° ENE 02:23:12 10° ESE visible
30 Sep 4.0 03:59:05 10° N 04:05:18 87° W 04:11:28 10° S visible
30 Sep 4.9 17:34:31 10° SSW 17:40:41 54° WNW 17:46:49 10° N visible
30 Sep 7.2 19:25:48 10° WNW 19:27:46 11° NW 19:29:42 10° NNW visible
01 Oct 5.9 02:40:53 10° N 02:46:20 31° ENE 02:51:45 10° SE visible
01 Oct 5.8 18:02:19 10° SW 18:07:54 33° WNW 18:13:28 10° N visible
02 Oct 7.1 01:25:00 10° NE 01:26:25 11° NE 01:27:52 10° ENE visible
02 Oct 4.9 03:07:32 10° N 03:13:34 52° ENE 03:19:33 10° SSE visible
02 Oct 4.1 16:42:40 10° S 16:48:58 85° E 16:55:15 10° N visible
02 Oct 6.6 18:30:49 10° WSW 18:35:19 20° WNW 18:39:49 10° NNW visible
03 Oct 6.6 01:50:00 10° NNE 01:54:07 18° ENE 01:58:14 10° ESE visible
03 Oct 4.0 03:34:22 10° N 03:40:36 88° E 03:46:46 10° S visible
03 Oct 4.8 17:09:48 10° SSW 17:15:58 58° WNW 17:22:08 10° N visible
03 Oct 7.1 19:00:36 10° WNW 19:02:57 12° NW 19:05:20 10° NNW visible
04 Oct 5.9 02:16:14 10° N 02:21:36 30° ENE 02:26:54 10° SE visible
04 Oct 4.1 04:01:27 10° NNW 04:07:26 55° W 04:13:25 10° SSW visible
04 Oct 5.8 17:37:30 10° SW 17:43:10 35° WNW 17:48:49 10° N visible
05 Oct 7.1 01:01:28 10° NE 01:01:38 10° NE 01:01:48 10° NE visible
05 Oct 4.9 02:42:51 10° N 02:48:50 49° ENE 02:54:47 10° SSE visible
05 Oct 6.5 18:05:55 10° WSW 18:10:34 21° WNW 18:15:12 10° NNW visible
06 Oct 6.6 01:25:25 10° NNE 01:29:21 17° ENE 01:33:15 10° E visible
06 Oct 4.0 03:09:41 10° N 03:15:53 83° E 03:22:04 10° S visible
06 Oct 4.7 16:45:04 10° SSW 16:51:15 61° WNW 16:57:26 10° N visible
06 Oct 7.0 18:35:27 10° W 18:38:10 13° NW 18:40:53 10° NNW visible
